This is the latest recevied weather packets stored in our database for station/object AC0MR. If no packets are shown the sender has not sent any weather packets the latest 10 day(s).
| Time | Temp. | Humidity | Pressure | Rain* | Wind** | Luminosity | Snow |
|---|---|---|---|---|---|---|---|
| 1777412718 | 14.44° C | 52% | 1013.2 hPa | 0 mm | - | 165 W/m² | - |
| 1777412118 | 14.44° C | 50% | 1013.3 hPa | 0 mm | - | 195 W/m² | - |
| 1777411518 | 14.44° C | 48% | 1013.5 hPa | 0 mm | - | 211 W/m² | - |
| 1777410918 | 15° C | 49% | 1013.8 hPa | 0 mm | - | 154 W/m² | - |
| 1777410318 | 15° C | 50% | 1014.1 hPa | 0 mm | - | 257 W/m² | - |
| 1777409718 | 15° C | 51% | 1013.9 hPa | 0 mm | - | 633 W/m² | - |
| 1777409118 | 15° C | 52% | 1013.8 hPa | 0 mm | - | 720 W/m² | - |
| 1777408519 | 15° C | 50% | 1013.7 hPa | 0 mm | - | 793 W/m² | - |
| 1777407918 | 14.44° C | 50% | 1014 hPa | 0 mm | - | 389 W/m² | - |
| 1777407318 | 15° C | 50% | 1014.4 hPa | 0 mm | - | 273 W/m² | - |
| 1777406719 | 15.56° C | 51% | 1014.6 hPa | 0 mm | - | 420 W/m² | - |
| 1777406119 | 15.56° C | 49% | 1014.7 hPa | 0 mm | - | 578 W/m² | - |
| 1777405520 | 16.11° C | 49% | 1014.7 hPa | 0 mm | - | 505 W/m² | - |
| 1777404920 | 16.11° C | 51% | 1015 hPa | 0 mm | - | 544 W/m² | - |
| 1777404319 | 15.56° C | 53% | 1015 hPa | 0 mm | - | 758 W/m² | - |
| 1777403720 | 15° C | 54% | 1015 hPa | 0 mm | - | 786 W/m² | - |
| 1777403120 | 15° C | 53% | 1015 hPa | 0 mm | - | 702 W/m² | - |
| 1777402520 | 15° C | 54% | 1015.3 hPa | 0 mm | - | 590 W/m² | - |
| 1777401919 | 15° C | 50% | 1015.4 hPa | 0 mm | - | 579 W/m² | - |
| 1777401319 | 15.56° C | 52% | 1015.5 hPa | 0 mm | - | 554 W/m² | - |
| 1777400719 | 15.56° C | 52% | 1015.6 hPa | 0 mm | - | 610 W/m² | - |
| 1777400119 | 15.56° C | 53% | 1015.6 hPa | 0 mm | - | 659 W/m² | - |
| 1777399519 | 15.56° C | 54% | 1015.6 hPa | 0 mm | - | 844 W/m² | - |
| 1777398919 | 15° C | 55% | 1015.6 hPa | 0 mm | - | 816 W/m² | - |
| 1777398319 | 15° C | 54% | 1015.6 hPa | 0 mm | - | 617 W/m² | - |
* Rain latest hour (hover to see other rain measurements)
** Current wind speed in m/s (hover to see current wind gust speed)